Location: Oberwangen
(47.4286°N, 8.9679°E)
Time: 15:28:59
(UTC+00:00)

Cosmos 1486 Rocket - Pass Details

Date: 20 June 2021
Orbit: 759 x 783 km, 74.1° (Epoch: 02 August)

Event Time Altitude Azimuth Distance (km) Brightness Sun altitude
Rises 21:28:01 0° 337° (NNW) 3,237 9.2 -14.3°
Reaches altitude 10° 21:30:24 10° 337° (NNW) 2,305 7.9 -14.5°
Maximum altitude 21:35:38 86° 250° (WSW) 769 4.0 -14.9°
Enters shadow 21:38:52 24° 162° (SSE) 1,544 5.0 -15.1°
